Погода в Рондонополисе

Бразилия     16°27′57″S   54°37′20″W
темп.,
°C
ветер,
м/с
пор.,
м/с
влажн.,
%
обл.,
%
осадки,
мм/ч
давл.,
гПа
погр.,
м
27 февраля, сб
сб2723:00+23всв1284100 0.1 101034
02:00+22в1195100 0.6 100923
05:00+21св129736 2.9 100933
08:00+24св238831 3.0 1011426
11:00+30с236558 0.1 10101106
14:00+29ссз237940 6.4 1007496
17:00+28ссв128734 7.6 1006121
20:00+24всв118944 8.5 100724
28 февраля, вс
вс2823:00+23в119399 0.3 100924
02:00+22в249757 3.3 1007131
05:00+21всв249840 0.0 1008142
08:00+24св378821 0.0 1009645
11:00+27св358045 2.5 1008838
14:00+29с237229 5.5 10051027
17:00+26св379045 5.9 1004322
20:00+23св5129341 11.9 1007477
1 марта, пн
пн123:00+22всв31096100 0.3 1008417
02:00+21св2797100 0.3 1007291
05:00+22всв3894100 0.0 1008376
08:00+24св488593 0.0 1010649
11:00+28св467430 1.7 1009971
14:00+28ссв347916 5.4 1006848
17:00+25св379234 7.7 1006458
20:00+23св399356 12.3 1008249
2 марта, вт
вт223:00+22св2296100 0.3 101059
02:00+22всв1297100 0.3 100959
05:00+21св2496100 0.0 1010151
08:00+24ссв128896 0.0 1012293
11:00+27всв348546 2.7 1012565
14:00+29ссв346837 5.2 10081125
17:00+26ссв25903 5.3 1007335
20:00+24св229342 6.4 101145
3 марта, ср
ср323:00+23с119598 0.4 101333
02:00+22в129699 0.4 101226
05:00+22в2497100 0.1 1012167
08:00+23всв3692100 0.1 1015363
11:00+24всв3587100 0.0 1014397
14:00+30св236679 0.1 10111162
17:00+28в138215 1.2 1009119
20:00+24всв129054 2.2 101224